EW2817 Weather Reports


time (UTC)temp
F
wind
direction
speed
knots
gust
knots
rain 1hr
in
rain 24hr
in
rain mn
in
humidity
%
barometer
mb
20260505205629 80 0 0.0 0.0 0.00 0.00 0.00 41 990.2
20260505204128 79 0 0.0 0.0 0.00 0.00 0.00 41 990.1
20260505201127 80 0 0.0 0.0 0.00 0.00 0.00 41 990.6
20260505195624 80 0 0.0 0.0 0.00 0.00 0.00 40 990.6
20260505194124 81 0 0.0 0.0 0.00 0.00 0.00 39 990.7
20260505192621 81 0 0.0 0.0 0.00 0.00 0.00 38 991.0
20260505191121 81 0 0.0 0.0 0.00 0.00 0.00 38 991.3
20260505185620 82 0 0.0 0.0 0.00 0.00 0.00 36 991.5
20260505184118 82 0 0.0 0.0 0.00 0.00 0.00 38 991.8
20260505182616 82 0 0.0 0.0 0.00 0.00 0.00 35 991.9
20260505181116 83 0 0.0 0.0 0.00 0.00 0.00 36 992.1
20260505175614 83 0 0.0 0.0 0.00 0.00 0.00 36 992.1
20260505174114 83 0 0.0 0.0 0.00 0.00 0.00 37 992.3
20260505172614 83 0 0.0 0.0 0.00 0.00 0.00 36 992.3
20260505171112 83 0 0.0 0.0 0.00 0.00 0.00 39 992.4
20260505165610 82 0 0.0 0.0 0.00 0.00 0.00 38 992.6
20260505162604 81 0 0.0 0.0 0.00 0.00 0.00 41 992.7
20260505161102 80 0 0.0 0.0 0.00 0.00 0.00 43 992.8
20260505152602 78 0 0.0 0.0 0.00 0.00 0.00 47 993.3
20260505151100 76 0 0.0 0.0 0.00 0.00 0.00 50 993.2
20260505124034 59 0 0.0 0.0 0.00 0.00 0.00 83 993.3
20260505122533 57 0 0.0 0.0 0.00 0.00 0.00 85 993.2
20260505121031 57 0 0.0 0.0 0.00 0.00 0.00 85 993.3
20260505115529 56 0 0.0 0.0 0.00 0.00 0.00 85 993.2
20260505114030 56 0 0.0 0.0 0.00 0.00 0.00 85 993.0
20260505112527 55 0 0.0 0.0 0.00 0.00 0.00 85 992.9
20260505101030 56 0 0.0 0.0 0.00 0.00 0.00 82 992.3
20260505095517 56 0 0.0 0.0 0.00 0.00 0.00 82 992.1
20260505094017 57 0 0.0 0.0 0.00 0.00 0.00 81 992.0
20260505092515 57 0 0.0 0.0 0.00 0.00 0.00 80 991.9
20260505091015 57 0 0.0 0.0 0.00 0.00 0.00 80 991.8
20260505085512 58 0 0.0 0.0 0.00 0.00 0.00 79 991.8
20260505084012 58 0 0.0 0.0 0.00 0.00 0.00 79 991.7
20260505081009 58 0 0.0 0.0 0.00 0.00 0.00 77 991.6
20260505075509 59 0 0.0 0.0 0.00 0.00 0.00 76 991.5
20260505074007 60 0 0.0 0.0 0.00 0.00 0.00 75 991.5
20260505072506 60 0 0.0 0.0 0.00 0.00 0.00 74 991.5
20260505071004 60 0 0.0 0.0 0.00 0.00 0.00 73 991.3
20260505065505 61 0 0.0 0.0 0.00 0.00 0.00 72 991.3
20260505062505 62 0 0.0 0.0 0.00 0.00 0.00 70 991.2
20260505061002 62 0 0.0 0.0 0.00 0.00 0.00 70 991.2
20260505055503 62 0 0.0 0.0 0.00 0.00 0.00 69 991.3
20260505054002 62 0 0.0 0.0 0.00 0.00 0.00 69 991.2
20260505051001 63 0 0.0 0.0 0.00 0.00 0.00 67 991.4
20260505040956 64 0 0.0 0.0 0.00 0.00 0.00 61 991.3
20260505035454 65 0 0.0 0.0 0.00 0.00 0.00 60 991.3
20260505033955 65 0 0.0 0.0 0.00 0.00 0.00 58 991.4
20260505032454 65 0 0.0 0.0 0.00 0.00 0.00 55 991.4
20260505030954 66 0 0.0 0.0 0.00 0.00 0.00 53 991.4
20260505025454 66 0 0.0 0.0 0.00 0.00 0.00 52 991.3
20260505023952 66 0 0.0 0.0 0.00 0.00 0.00 51 991.3
20260505022451 67 0 0.0 0.0 0.00 0.00 0.00 51 991.2
20260505020949 67 0 0.0 0.0 0.00 0.00 0.00 51 991.0
20260505013945 67 0 0.0 0.0 0.00 0.00 0.00 49 990.8
20260505012445 68 0 0.0 0.0 0.00 0.00 0.00 49 990.6
20260505010945 69 0 0.0 0.0 0.00 0.00 0.00 51 990.4
20260505005445 70 0 0.0 0.0 0.00 0.00 0.00 48 990.3
20260505003946 71 0 0.0 0.0 0.00 0.00 0.00 47 990.1
20260505002439 72 0 0.0 0.0 0.00 0.00 0.00 46 989.9
20260504235439 74 0 0.0 0.0 0.00 0.00 0.00 44 989.7
20260504232431 75 0 0.0 0.0 0.00 0.00 0.00 40 989.6
20260504225427 76 0 0.0 0.0 0.00 0.00 0.00 37 989.5
20260504223924 76 0 0.0 0.0 0.00 0.00 0.00 37 989.6
20260504222425 77 0 0.0 0.0 0.00 0.00 0.00 36 989.6
20260504220924 77 0 0.0 0.0 0.00 0.00 0.00 36 989.6
20260504215425 77 0 0.0 0.0 0.00 0.00 0.00 37 989.6
20260504213922 77 0 0.0 0.0 0.00 0.00 0.00 36 989.6
20260504212420 78 0 0.0 0.0 0.00 0.00 0.00 36 989.6
20260504210919 78 0 0.0 0.0 0.00 0.00 0.00 37 989.6